Location: Niles Junction
(37.5763°N, 121.9714°W)
Time: 03:38:23
(UTC+00:00)

H-2A R/B - Pass Details

Date: 29 October 2020
Orbit: 528 x 652 km, 98.3° (Epoch: 23 November)

Event Time Altitude Azimuth Distance (km) Brightness Sun altitude
Rises 13:34:38 0° 19° (NNE) 2,913 6.2 -11.6°
Reaches altitude 10° 13:36:56 10° 26° (NNE) 1,983 5.4 -11.2°
Maximum altitude 13:41:05 45° 99° (E) 817 3.8 -10.4°
Drops below altitude 10° 13:45:02 10° 173° (S) 1,896 5.3 -9.6°
Sets 13:47:12 0° 180° (S) 2,770 6.0 -9.2°
